Location: Arroyo de Valdeoliva
(40.1604°N, 4.9878°W)
Time: 16:17:30
(UTC+00:00)

ISS - Visible Passes

Search period start: 14 February 2026 00:00
Search period end: 24 February 2026 00:00
Orbit: 413 x 428 km, 51.6° (Epoch: 13 February)

Date Brightness Start Highest point End Pass type
(mag) Time Alt. Az. Time Alt. Az. Time Alt. Az.
14 Feb -2.4 05:20:59 32° SSE 05:21:27 34° SE 05:24:31 10° ENE visible
15 Feb -0.5 04:36:21 13° E 04:36:21 13° E 04:37:02 10° E visible
15 Feb -3.4 06:09:22 23° W 06:11:08 45° NNW 06:14:22 10° NE visible
16 Feb -3.4 05:24:33 58° NNE 05:24:33 58° NNE 05:27:22 10° NE visible
17 Feb -0.7 04:39:35 15° ENE 04:39:35 15° ENE 04:40:15 10° ENE visible
17 Feb -2.2 06:12:35 17° WNW 06:14:01 22° NNW 06:16:42 10° NNE visible
18 Feb -2.3 05:27:30 27° N 05:27:30 27° N 05:29:45 10° NE visible
19 Feb -0.7 04:42:19 13° NE 04:42:19 13° NE 04:42:46 10° NE visible
19 Feb -1.5 06:15:18 11° NW 06:17:01 14° NNW 06:18:54 10° NNE visible
20 Feb -1.6 05:30:02 17° N 05:30:02 17° N 05:31:56 10° NNE visible
21 Feb -0.7 04:44:43 11° NNE 04:44:43 11° NNE 04:44:57 10° NNE visible
21 Feb -1.3 06:18:48 10° NNW 06:20:06 12° N 06:21:23 10° NNE visible
22 Feb -1.3 05:32:20 12° NNW 05:32:38 12° N 05:34:08 10° NNE visible
23 Feb -0.7 04:46:57 10° NNE 04:46:57 10° NNE 04:47:03 10° NNE visible
23 Feb -1.2 06:21:31 10° NNW 06:23:07 13° N 06:24:43 10° NE visible
